Regional Weather Roundup
Issued by NWS Upton, NY

Current Version | Previous Version | Text Only | Print | Product List | Glossary Off
Versions: 1 2 3 4 5 6 7 8 9 10 11 12 13 14 15 16 17 18 19 20 21 22 23 24 25 26 27 28 29 30 31 32 33 34 35 36 37 38 39 40 41 42 43 44 45 46 47 48 49 50

000
ASUS41 KOKX 040408
RWROKX

REGIONAL WEATHER ROUNDUP
NATIONAL WEATHER SERVICE NEW YORK NY
1200 AM EDT MON MAY 04 2015

NOTE: "FAIR" INDICATES FEW OR NO CLOUDS BELOW 12,000 FEET WITH NO
SIGNIFICANT WEATHER AND/OR OBSTRUCTIONS TO VISIBILITY.

NYZ071-072-176-178-NJZ106-104-040500-
NEW YORK CITY METRO AREA


CITY           SKY/WX    TMP DP  RH WIND       PRES   REMARKS
CENTRAL PARK   CLEAR     61  44  53 CALM      30.17R
LAGUARDIA APRT CLEAR     59  47  64 S3        30.15R
KENNEDY INTL   CLEAR     53  48  83 SE3       30.17R
NEWARK/LIBERTY PTCLDY    64  40  41 CALM      30.14R
BRNX BOT. GARD   N/A     57  46  67 E3        30.17R
TETERBORO      CLEAR     62  40  44 CALM      30.13S
$$

NYZ177-179-078>081-040500-
LONG ISLAND NEW YORK

CITY           SKY/WX    TMP DP  RH WIND       PRES   REMARKS
FARMINGDALE    CLEAR     52  48  86 S5        30.17R
ISLIP          PTCLDY    52  48  86 S5        30.16R
SHIRLEY        CLEAR     51  46  83 S5        30.18R
WESTHAMPTON    CLEAR     49  46  90 CALM      30.18S
MONTAUK POINT    N/A     51  46  83 CALM      30.20R
$$

NYZ052-065-067-040500-
HUDSON VALLEY

CITY           SKY/WX    TMP DP  RH WIND       PRES   REMARKS
WHITE PLAINS   CLEAR     52  45  77 CALM      30.15R
NEWBURGH       CLEAR     55  45  67 VRB8      30.14R
MONTGOMERY     CLEAR     52  44  74 CALM      30.12R
POUGHKEEPSIE   CLEAR     55  43  63 CALM      30.12R
ALBANY         PTCLDY    59  41  51 S3        30.10R
$$

NJZ001-105-106-008-010-013-015-019>022-104-040500-
NEW JERSEY

CITY           SKY/WX    TMP DP  RH WIND       PRES   REMARKS
NEWARK/LIBERTY PTCLDY    64  40  41 CALM      30.14R
TETERBORO      CLEAR     62  40  44 CALM      30.13S
CALDWELL       CLEAR     57  43  59 CALM      30.15R
MORRISTOWN     CLEAR     55  45  67 CALM      30.14S
SOMERVILLE     CLEAR     54  44  69 CALM      30.13R
SUSSEX         CLEAR     54  43  66 CALM      30.14S
ANDOVER          N/A     58  48  69 SW3       30.14R
TRENTON        CLEAR     59  38  45 S3        30.15R
MILLVILLE      CLEAR     52  49  89 CALM      30.16S
ATLANTIC CITY  CLEAR     54  49  83 SW3       30.17R
WRIGHTSTOWN    CLEAR     55  47  73 SW5       30.14R
TOMS RIVER     CLEAR     52  46  82 SW3       30.16S
BELMAR         CLEAR     57  43  58 S6        30.16R
$$

PAZ047>061-062-071-040500-
EASTERN PENNSYLVANIA

CITY           SKY/WX    TMP DP  RH WIND       PRES   REMARKS
PHILADELPHIA   CLEAR     62  46  55 W3        30.16R
ALLENTOWN      CLEAR     63  39  41 CALM      30.13R
SCRANTON       CLEAR     61  35  37 E5        30.13R
$$

CTZ002-004>006-009-010-012-RIZ004-006-007-MAZ004-011-015-040500-
SOUTHERN NEW ENGLAND
 IN CT

CITY           SKY/WX    TMP DP  RH WIND       PRES   REMARKS
BRADLEY INTL   PTCLDY    57  43  59 S8        30.13S
HARTFORD       CLEAR     54  32  43 S6        30.15S
DANBURY        CLEAR     52  40  63 CALM      30.16R
WTRBRY/OXFORD  CLEAR     52  41  66 S5        30.18S
BRIDGEPORT     CLEAR     54  47  77 S5        30.16S
MERIDEN        CLEAR     50  43  77 CALM      30.16S
NEW HAVEN      CLEAR     50  44  80 CALM      30.17R
CHESTER        FAIR      48  45  87 S3        30.17S
GROTON         PTCLDY    48  44  86 CALM      30.18R
WILLIMANTIC    CLEAR     53  43  68 S5        30.17R

 IN RI

CITY           SKY/WX    TMP DP  RH WIND       PRES   REMARKS
PROVIDENCE     PTCLDY    49  44  83 S8        30.18R
BLOCK ISLAND   PTCLDY    48  43  81 SW8       30.19S
WESTERLY       PTCLDY    48  45  89 CALM      30.19S

 IN MA

CITY           SKY/WX    TMP DP  RH WIND       PRES   REMARKS
BOSTON         PTCLDY    51  41  68 SW8       30.15R
WORCESTER      CLEAR     53  43  68 SW10      30.14R
WESTFIELD      PTCLDY    56  43  61 S7        30.13R
PROVINCETOWN   CLEAR     48  45  87 S12       30.17R
NANTUCKET      FAIR      47  44  90 S8        30.20S
$$

ANZ330-335-338-340-345-350-353-355-040500-
COASTAL MARINE OBSERVATIONS


STATION/POSITION TIME  SKY/WX   TEMP    WIND        PRES    VSBY  WAVE
                                AIR SEA DIR/SP/G                  HT/PER
                 (UTC)          (F)     (DEG/KT/KT) (MB)    (MI)  (FT/S)
NY HARB ENTRANCE 0350            52 51  190/ 10/ 12 1020.8          3/ 8
4S FIRE IS       0303               49                N/A           4/13
20S FIRE ISLAND  0350            51 48  200/  8/ 10 1021.5          4/10
GREAT SOUTH BAY  0300            53 58  190/  4/  6   N/A
23SW MTP         0350            50 46  210/ 10/ 10 1021.8          4/ 7
HUDSON CANYON    NOT AVBL
EXECUTION ROCKS  NOT AVBL
WESTERN LI SOUND NOT AVBL
CENTRAL LI SOUND NOT AVBL
EASTERN LI SOUND 0300            47     150/  6/  8   N/A
ROBBINS REEF     0300            62     160/  4/  5 1019.5
$$


>>>>>>>>>>>>>>>>>>>>>>>>>>>> KEY <<<<<<<<<<<<<<<<<<<<<<<<<<<
>                                                          <
>     SKY/WX - SKY CONDITION/PRESENT WEATHER               <
>     TMP    - TEMPERATURE IN FAHRENHEIT                   <
>     DP     - DEWPOINT IN FAHRENHEIT                      <
>     RH     - RELATIVE HUMIDITY IN PERCENT                <
>     WIND   - DIRECTION AND SPEED IN MPH                  <
>     PRES   - MEAN SEA LEVEL PRESSURE IN INCHES OF HG     <
>     WCI    - WIND CHILL INDEX                            <
>     VSB    - VISIBILITY IN MILES                         <
>     HX     - HEAT INDEX                                  <
>     TC     - TEMPERATURE IN CELSIUS                      <
>     VRB    - VARIABLE WIND DIRECTION                     <
>                                                          <
>>>>>>>>>>>>>>>>>>>>>>>>>>>> KEY <<<<<<<<<<<<<<<<<<<<<<<<<<<




USA.gov is the U.S. government's official web portal to all federal, state and local government web resources and services.